This is the latest recevied weather packets stored in our database for station/object KC3AWA. If no packets are shown the sender has not sent any weather packets the latest 10 day(s).
| Time | Temp. | Humidity | Pressure | Rain* | Wind** | Luminosity | Snow |
|---|---|---|---|---|---|---|---|
| 1778115950 | 6.67° C | 66% | 1014.5 hPa | 0 mm | - | 0 W/m² | - |
| 1778115647 | 7.22° C | 64% | 1014.4 hPa | 0 mm | - | 0 W/m² | - |
| 1778115344 | 7.22° C | 64% | 1014.1 hPa | 0 mm | - | 0 W/m² | - |
| 1778115040 | 7.22° C | 64% | 1014.3 hPa | 0 mm | - | 0 W/m² | - |
| 1778114738 | 7.22° C | 64% | 1013.9 hPa | 0 mm | - | 0 W/m² | - |
| 1778114435 | 7.22° C | 63% | 1014.4 hPa | 0 mm | - | 0 W/m² | - |
| 1778114131 | 7.22° C | 62% | 1014.3 hPa | 0 mm | - | 0 W/m² | - |
| 1778113826 | 7.22° C | 62% | 1014.1 hPa | 0 mm | - | 0 W/m² | - |
| 1778113523 | 7.22° C | 60% | 1014.4 hPa | 0 mm | - | 1 W/m² | - |
| 1778113219 | 7.78° C | 62% | 1014.2 hPa | 0 mm | - | 2 W/m² | - |
| 1778112915 | 7.78° C | 62% | 1014.3 hPa | 0 mm | - | 3 W/m² | - |
| 1778112613 | 7.78° C | 58% | 1014.2 hPa | 0 mm | - | 3 W/m² | - |
| 1778112309 | 7.78° C | 61% | 1014.2 hPa | 0 mm | - | 6 W/m² | - |
| 1778112004 | 7.78° C | 58% | 1014.1 hPa | 0 mm | - | 9 W/m² | - |
| 1778111702 | 7.78° C | 58% | 1014.4 hPa | 0 mm | - | 6 W/m² | - |
| 1778111398 | 7.78° C | 57% | 1014.4 hPa | 0 mm | - | 9 W/m² | - |
| 1778111095 | 7.78° C | 57% | 1014.3 hPa | 0 mm | - | 11 W/m² | - |
| 1778110793 | 7.78° C | 56% | 1014.3 hPa | 0 mm | - | 18 W/m² | - |
| 1778110489 | 8.33° C | 55% | 1014.2 hPa | 0 mm | - | 15 W/m² | - |
| 1778110185 | 8.33° C | 56% | 1014.1 hPa | 0 mm | - | 16 W/m² | - |
| 1778109882 | 8.33° C | 58% | 1013.9 hPa | 0 mm | - | 16 W/m² | - |
| 1778109578 | 8.33° C | 55% | 1013.7 hPa | 0 mm | - | 17 W/m² | - |
| 1778109275 | 8.33° C | 56% | 1013.9 hPa | 0 mm | - | 19 W/m² | - |
| 1778108972 | 8.89° C | 55% | 1013.7 hPa | 0 mm | - | 24 W/m² | - |
| 1778108669 | 8.89° C | 55% | 1013.7 hPa | 0 mm | - | 29 W/m² | - |
* Rain latest hour (hover to see other rain measurements)
** Current wind speed in m/s (hover to see current wind gust speed)